Location: Newark
(8.3450°N, 9.6110°W)
Time: 17:13:05
(UTC+00:00)

N. Korean satellite - Visible Passes

Search period start: 01 October 2020 00:00
Search period end: 11 October 2020 00:00
Orbit: 454 x 503 km, 97.2° (Epoch: 30 September)

Date Brightness Start Highest point End Pass type
(mag) Time Alt. Az. Time Alt. Az. Time Alt. Az.
01 Oct 6.4 06:01:09 10° N 06:04:35 64° WNW 06:08:00 10° SSW visible
02 Oct 8.0 05:35:19 10° NNE 05:38:36 40° E 05:41:50 10° S visible
03 Oct 9.8 05:10:32 10° ENE 05:12:35 15° E 05:14:35 10° SE visible
05 Oct 6.6 05:50:16 10° NNE 05:53:43 80° E 05:57:08 10° S visible
06 Oct 8.9 05:24:46 10° NE 05:27:42 26° E 05:30:36 10° SSE visible
08 Oct 6.6 06:05:28 10° N 06:08:48 51° WNW 06:12:07 10° SSW visible
09 Oct 7.5 05:39:28 10° NNE 05:42:47 48° E 05:46:05 10° S visible
10 Oct 9.6 05:14:24 10° NE 05:16:43 17° E 05:19:03 10° SE visible
